Regional Weather Roundup
Issued by NWS

Home | Current Version | Previous Version | Graphics & Text | Print | Product List | Glossary On
Versions: 1 2 3 4 5 6 7 8 9 10 11 12 13 14 15 16 17 18 19 20 21 22 23 24 25 26 27 28 29 30 31 32 33 34 35 36 37 38
000
ASUS45 KBOU 270607
RWRCO

WEATHER ROUNDUP FOR COLORADO
NATIONAL WEATHER SERVICE DENVER/BOULDER CO
1100 PM MST FRI DEC 26 2014

NOTE: "FAIR" INDICATES FEW OR NO CLOUDS BELOW 12000 FEET WITH NO
SIGNIFICANT WEATHER AND/OR OBSTRUCTIONS TO VISIBILITY.

COZ001>005-013-030-031-270700-
...NORTHWEST COLORADO...

CITY           SKY/WX    TMP DP  RH WIND       PRES   REMARKS
CRAIG          LGT SNOW   9   7  92 NW6       30.08R FOG     WCI  -1
HAYDEN         CLOUDY    10   7  85 NW5       30.05R WCI   2
MEEKER         CLOUDY     8   4  83 CALM      30.07R
MOUNT WERNER   NOT AVBL
STEAMBOAT SPGS CLOUDY    11   9  89 CALM      30.03R
WALDEN         CLOUDY     3   0  85 N9        29.95R WCI -11
$$

COZ006>008-011-270700-
...WEST CENTRAL VALLEYS...

CITY           SKY/WX    TMP DP  RH WIND       PRES   REMARKS
GRAND JUNCTION MOCLDY    10   5  80 CALM      30.12R
MONTROSE       LGT SNOW  20  17  88 SE5       30.10R FOG     WCI  13
EAGLE          LGT SNOW  16  12  86 W6        30.05R FOG     WCI   7
RIFLE          PTCLDY    12   4  70 S3        30.11R
DELTA          LGT SNOW  24  19  80 SW3       30.09R
NUCLA          PTCLDY    19  14  79 CALM      30.12R
$$

COZ017>023-064>068-270700-
...SOUTHWEST COLORADO...

CITY           SKY/WX    TMP DP  RH WIND       PRES   REMARKS
DURANGO        PTCLDY     9   7  92 N7        30.00R WCI  -2
CORTEZ         CLEAR     16  11  80 CALM      30.05R
PAGOSA SPRINGS LGT SNOW  15  14  95 CALM      29.98R
TELLURIDE      LGT SNOW  10   8  91 CALM      29.96R
WOLF CREEK PAS CLOUDY     1   0  92 MISG      29.82S
$$

COZ009-010-012-014-032>034-037-058>063-270700-
...CENTRAL COLORADO...

CITY           SKY/WX    TMP DP  RH WIND       PRES   REMARKS
ASPEN          LGT SNOW  11   8  88 NW3       29.97R FOG
BUENA VISTA    LGT SNOW   4   0  83 W6        29.97R WCI  -7
COPPER MTN     LGT SNOW   1  -6  71 W17       29.78R WCI -19
BERTHOUD PASS  CLOUDY    -8 -13  77 MISG      29.74R
COTTONWOOD PAS LGT SNOW   7   1  78 CALM      29.87R
GUNNISON       PTCLDY     0   0 100 CALM      30.00R
KREMMLING      CLOUDY    10   5  79 CALM      30.00R
LEADVILLE      PTCLDY    -2  -7  79 CALM      29.85R
MONARCH PASS   CLOUDY     1  -4  78 MISG      29.89S
SALIDA         CLOUDY     7   2  82 SW5       30.07R WCI  -2
SUNLIGHT       CLOUDY   N/A N/A N/A CALM      29.87R
WILKERSON PASS MOCLDY   N/A N/A N/A W3        29.83R
$$

COZ069>075-270700-
...SAN LUIS VALLEY/SANGRE DE CRISTO MOUNTAINS...

CITY           SKY/WX    TMP DP  RH WIND       PRES   REMARKS
ALAMOSA        CLOUDY    12   8  84 CALM      29.96R
LA VETA PASS   NOT AVBL
SAGUACHE       MOCLDY    10   3  72 N12       29.96R WCI  -4
$$

COZ035-036-038>040-270700-
...NORTHERN COLORADO FRONT RANGE...

CITY           SKY/WX    TMP DP  RH WIND       PRES   REMARKS
DENVER INTL AP FLURRIES  10   7  87 S8        30.08S WCI  -2
DMNS CITY PARK   N/A     12  11  93 SE3       30.10S
AURORA         NOT AVBL
FRONT RANGE AP NOT AVBL
ERIE MUNI ARPT   N/A      8   6  92 S6        30.11R WCI  -2
BOULDER MUN AP PTCLDY    12  10  92 SW3       30.09S
CENTENNIAL     FLURRIES  11   9  92 S3        30.06R
BROOMFIELD     PTCLDY     9   5  85 SW6       30.08R WCI  -1
FORT COLLINS   MOCLDY    16  12  86 S7        30.11R WCI   6
LONGMONT       CLOUDY    15  12  89 SW3       30.13R
$$

COZ041-046-047-076>085-087-088-270700-
...PIKES PEAK/PALMER DIVIDE AND SOUTHERN FOOTHILLS...

CITY           SKY/WX    TMP DP  RH WIND       PRES   REMARKS
COLO. SPRINGS  FLURRIES  15  12  88 S9        30.06R WCI   3
A. F. ACADEMY  MOCLDY    12   7  79 NW5       30.02R WCI   4
ELLICOTT       NOT AVBL
FALCON         FLURRIES  13   7  78 CALM      30.02R
FORT CARSON    FLURRIES  16  12  86 S8        30.06R WCI   5
LIMON          MOCLDY     2   0  91 W8        30.09R WCI -12
MONUMENT HILL  CLOUDY     7   5  92 SW3       29.99R
TRINIDAD       LGT SNOW  14  11  87 W5        30.06S FOG     WCI   6
$$

COZ042>045-048>051-090-091-270700-
...NORTHEAST COLORADO...

CITY           SKY/WX    TMP DP  RH WIND       PRES   REMARKS
GREELEY ARPT   MOCLDY    12   7  79 W3        30.11R
AKRON          CLOUDY     9   8  96 SW9       30.10R WCI  -4
BURLINGTON     PTCLDY     6   3  87 NW12      30.13R WCI  -9
WRAY           LGT SNOW  17  15  91 W6        30.16R WCI   9
STERLING       LGT SNOW  10   9  92 W8        30.13S WCI  -1
HOLYOKE        LGT SNOW  19  16  86 W8        30.15R WCI   9
FORT MORGAN    CLEAR      8   6  91 W3        30.13R
$$

COZ086-089-092>099-270700-
...SOUTHEAST COLORADO...

CITY           SKY/WX    TMP DP  RH WIND       PRES   REMARKS
PUEBLO         CLOUDY    19  14  81 SE8       30.13R WCI   9
LA JUNTA       CLEAR      7   3  84 NW7       30.15S WCI  -5
LAMAR          CLEAR     11   8  88 W3        30.15S
SPRINGFIELD      N/A     15  12  88 NW12      30.09F WCI   2
$$


USA.gov is the U.S. government's official web portal to all federal, state and local government web resources and services.